Weather History for Belize, Belize

Change the Weather History Date:

Monday, September 5, 2011

  Actual Average Record
Temperature  
Mean Temperature 86 °F -  
Max Temperature 91 °F 88 °F 95 °F (2004)
Min Temperature 80 °F 75 °F 75 °F (2005)
Cooling Degree Days 20    
Growing Degree Days 36 (Base 50)    
Moisture  
Dew Point 78 °F    
Average Humidity 75    
Maximum Humidity 94    
Minimum Humidity 57    
Precipitation  
Precipitation 0.00 in 0.36 in - ()
Sea Level Pressure  
Sea Level Pressure 29.76 in    
Wind  
Wind Speed 2 mph ()    
Max Wind Speed 8 mph    
Max Gust Speed -    
Visibility 8.0 miles    
Events      
Averages and records for this station are not official NWS values.
T = Trace of Precipitation, MM = Missing Value Source: Averaged Metar Reports

Daily Weather History Graph

Daily Weather History Graph

Search for Another Location

Airport:

Trip Planner

Search our weather history database for the weather conditions in past years. The results will help you decide how hot, cold, wet, or windy it might be!

Date:

Astronomy

Sep. 05, 2011 Rise Set
Actual Time 5:39 AM CST 6:03 PM CST
Civil Twilight 5:17 AM CST 6:25 PM CST
Nautical Twilight 4:52 AM CST 6:51 PM CST
Astronomical Twilight 4:26 AM CST 7:17 PM CST
Moon 1:09 PM CST (9/5) No Moon Set
Length of Visible Light 13h 07m
Length of Day
12h 24m
First Quarter, 61% of the Moon is Illuminated
Sep 5
First Quarter
Sep 12
Full
Sep 20
Last Quarter
Sep 27
New
Oct 3
First Quarter

Hourly Weather History & Observations

Time (CST) Temp. Heat Index Dew Point Humidity Pressure Visibility Wind Dir Wind Speed Gust Speed Precip Events Conditions
12:00 AM 83 °F - 80 °F 87% 29.79 in 12 mi Calm Calm - -  
12:00 AM 84.2 °F 98.3 °F 80.6 °F 89% 29.77 in 6.2 mi Calm Calm - N/A   Partly Cloudy
3:00 AM 82.4 °F 94.0 °F 80.6 °F 94% 29.71 in 6.2 mi Calm Calm - N/A   Scattered Clouds
6:00 AM 81 °F - 79 °F 93% 29.77 in 12 mi Calm Calm - -  
6:00 AM 80.6 °F 88.1 °F 78.8 °F 94% 29.77 in 6.2 mi Calm Calm - N/A   Mostly Cloudy
7:00 AM 82.4 °F 94.0 °F 80.6 °F 94% 29.77 in 6.2 mi Calm Calm - N/A   Partly Cloudy
8:00 AM 84.2 °F 98.3 °F 80.6 °F 89% 29.77 in 6.2 mi SSW 4.6 mph - N/A   Scattered Clouds
9:00 AM 87 °F - 76 °F 62% 29.81 in 12 mi South 5.8 mph - -   Scattered Clouds
9:00 AM 87.8 °F 97.6 °F 75.2 °F 66% 29.80 in 6.2 mi South 5.8 mph - N/A   Scattered Clouds
10:00 AM 89.6 °F 99.8 °F 75.2 °F 62% 29.80 in 6.2 mi South 4.6 mph - N/A   Scattered Clouds
11:00 AM 91.4 °F 105.1 °F 77.0 °F 63% 29.80 in 6.2 mi South 5.8 mph - N/A   Scattered Clouds
12:00 PM 91 °F - 79 °F 60% 29.79 in 12 mi SSE 6.9 mph - -   Scattered Clouds
12:00 PM 91.4 °F 107.2 °F 78.8 °F 66% 29.78 in 6.2 mi SSE 6.9 mph - N/A   Mostly Cloudy
1:00 PM 91.4 °F 105.1 °F 77.0 °F 63% 29.75 in 6.2 mi SE 8.1 mph - N/A   Mostly Cloudy
2:00 PM 91.4 °F 105.1 °F 77.0 °F 63% 29.72 in 6.2 mi SSE 8.1 mph - N/A   Scattered Clouds
3:00 PM 90 °F - 77 °F 57% 29.71 in 12 mi SSE 6.9 mph - -   Scattered Clouds
3:00 PM 89.6 °F 102.2 °F 77.0 °F 66% 29.71 in 6.2 mi SSE 6.9 mph - N/A   Scattered Clouds
4:00 PM 89.6 °F 104.7 °F 78.8 °F 70% 29.72 in 6.2 mi South 8.1 mph - N/A   Scattered Clouds
5:00 PM 87.8 °F 102.5 °F 78.8 °F 75% 29.71 in 6.2 mi SW 3.5 mph - N/A   Mostly Cloudy
6:00 PM 86 °F - 78 °F 71% 29.73 in 12 mi Calm Calm - -   Scattered Clouds
6:00 PM 86.0 °F 99.3 °F 78.8 °F 79% 29.73 in 6.2 mi Calm Calm - N/A   Mostly Cloudy
9:00 PM 81 °F - 76 °F 82% 29.82 in 12 mi Calm Calm - -  
9:00 PM 80.6 °F 87.1 °F 77.0 °F 89% 29.82 in 6.2 mi Calm Calm - N/A   Mostly Cloudy